| time (UTC) | temp C | wind direction | speed KPH | gust KPH | rain 1hr cm | rain 24hr cm | rain mn cm | humidity % | barometer mb |
| 20260502163052 | 21 | 279 | 16.1 | 29.0 | 0.00 | 0.00 | 0.00 | 31 | 878.7 |
| 20260502161550 | 20 | 298 | 19.3 | 30.6 | 0.00 | 0.00 | 0.00 | 30 | 878.6 |
| 20260502151547 | 18 | 277 | 9.7 | 14.5 | 0.00 | 0.00 | 0.00 | 37 | 878.7 |
| 20260502123015 | 5 | 298 | 4.8 | 8.0 | 0.00 | 0.00 | 0.00 | 84 | 877.7 |
| 20260502121515 | 5 | 304 | 6.4 | 9.7 | 0.00 | 0.00 | 0.00 | 85 | 877.7 |
| 20260502114510 | 5 | 293 | 4.8 | 9.7 | 0.00 | 0.00 | 0.00 | 82 | 877.7 |
| 20260502113007 | 6 | 309 | 4.8 | 9.7 | 0.00 | 0.00 | 0.00 | 83 | 877.5 |
| 20260502111506 | 6 | 281 | 6.4 | 9.7 | 0.00 | 0.00 | 0.00 | 82 | 877.5 |
| 20260502110006 | 6 | 283 | 4.8 | 8.0 | 0.00 | 0.00 | 0.00 | 84 | 877.4 |
| 20260502104504 | 6 | 309 | 6.4 | 14.5 | 0.00 | 0.00 | 0.00 | 82 | 877.5 |
| 20260502103004 | 6 | 302 | 3.2 | 9.7 | 0.00 | 0.00 | 0.00 | 81 | 877.4 |
| 20260502101600 | 6 | 275 | 3.2 | 8.0 | 0.00 | 0.00 | 0.00 | 80 | 877.4 |
| 20260502100103 | 6 | 292 | 4.8 | 9.7 | 0.00 | 0.00 | 0.00 | 81 | 877.4 |
| 20260502071531 | 10 | 304 | 0.0 | 0.0 | 0.00 | 0.00 | 0.00 | 71 | 878.1 |
| 20260502070030 | 10 | 304 | 0.0 | 4.8 | 0.00 | 0.00 | 0.00 | 71 | 878.1 |
| 20260502064543 | 10 | 304 | 3.2 | 6.4 | 0.00 | 0.00 | 0.00 | 75 | 878.1 |
| 20260502063034 | 11 | 282 | 4.8 | 6.4 | 0.00 | 0.00 | 0.00 | 75 | 878.2 |
| 20260502061530 | 11 | 296 | 0.0 | 0.0 | 0.00 | 0.00 | 0.00 | 70 | 878.1 |
| 20260502060029 | 12 | 295 | 3.2 | 6.4 | 0.00 | 0.00 | 0.00 | 73 | 878.1 |
| 20260502054530 | 13 | 255 | 0.0 | 9.7 | 0.00 | 0.00 | 0.00 | 71 | 878.0 |
| 20260502053026 | 13 | 113 | 0.0 | 11.3 | 0.00 | 0.00 | 0.00 | 59 | 878.0 |
| 20260502051531 | 13 | 79 | 3.2 | 8.0 | 0.00 | 0.00 | 0.00 | 61 | 877.9 |
| 20260502050026 | 13 | 87 | 3.2 | 8.0 | 0.00 | 0.00 | 0.00 | 64 | 878.0 |
| 20260502044534 | 14 | 132 | 1.6 | 6.4 | 0.00 | 0.00 | 0.00 | 68 | 878.0 |
| 20260502043025 | 13 | 128 | 3.2 | 6.4 | 0.00 | 0.00 | 0.00 | 73 | 877.9 |
| 20260502041527 | 13 | 142 | 3.2 | 6.4 | 0.00 | 0.00 | 0.00 | 72 | 877.7 |
| 20260502040036 | 14 | 107 | 3.2 | 8.0 | 0.00 | 0.00 | 0.00 | 70 | 877.7 |
| 20260502034527 | 14 | 123 | 3.2 | 9.7 | 0.00 | 0.00 | 0.00 | 69 | 877.5 |
| 20260502033023 | 15 | 86 | 4.8 | 11.3 | 0.00 | 0.00 | 0.00 | 69 | 877.4 |
| 20260502031523 | 14 | 119 | 6.4 | 11.3 | 0.00 | 0.00 | 0.00 | 72 | 877.3 |
| 20260502030026 | 14 | 133 | 6.4 | 12.9 | 0.00 | 0.00 | 0.00 | 71 | 877.2 |
| 20260502024525 | 15 | 147 | 4.8 | 12.9 | 0.00 | 0.00 | 0.00 | 69 | 877.1 |
| 20260502023021 | 15 | 117 | 4.8 | 8.0 | 0.00 | 0.00 | 0.00 | 63 | 877.0 |
| 20260502021521 | 16 | 114 | 6.4 | 14.5 | 0.00 | 0.00 | 0.00 | 71 | 876.9 |
| 20260502020022 | 17 | 103 | 6.4 | 14.5 | 0.00 | 0.00 | 0.00 | 66 | 876.9 |
| 20260502014537 | 17 | 111 | 8.0 | 16.1 | 0.00 | 0.00 | 0.00 | 62 | 876.8 |
| 20260502013019 | 18 | 111 | 9.7 | 16.1 | 0.00 | 0.00 | 0.00 | 60 | 876.7 |
| 20260502011519 | 18 | 158 | 11.3 | 20.9 | 0.00 | 0.00 | 0.00 | 61 | 876.8 |
| 20260502010019 | 20 | 129 | 11.3 | 20.9 | 0.00 | 0.00 | 0.00 | 57 | 876.8 |
| 20260502004523 | 20 | 101 | 11.3 | 20.9 | 0.00 | 0.00 | 0.00 | 53 | 876.7 |
| 20260502003017 | 20 | 99 | 9.7 | 22.5 | 0.00 | 0.00 | 0.00 | 52 | 876.7 |
| 20260502001528 | 20 | 142 | 11.3 | 22.5 | 0.00 | 0.00 | 0.00 | 53 | 876.7 |
| 20260502000017 | 20 | 147 | 12.9 | 22.5 | 0.00 | 0.00 | 0.00 | 52 | 876.7 |
| 20260501234518 | 20 | 130 | 12.9 | 25.7 | 0.00 | 0.00 | 0.00 | 47 | 876.8 |
| 20260501233017 | 21 | 129 | 14.5 | 22.5 | 0.00 | 0.00 | 0.00 | 47 | 876.7 |
| 20260501231515 | 21 | 138 | 9.7 | 24.1 | 0.00 | 0.00 | 0.00 | 48 | 876.8 |
| 20260501230015 | 21 | 152 | 12.9 | 25.7 | 0.00 | 0.00 | 0.00 | 48 | 876.9 |
| 20260501224517 | 21 | 126 | 16.1 | 24.1 | 0.00 | 0.00 | 0.00 | 45 | 877.1 |
| 20260501223018 | 21 | 124 | 12.9 | 22.5 | 0.00 | 0.00 | 0.00 | 47 | 877.1 |
| 20260501221513 | 21 | 136 | 16.1 | 24.1 | 0.00 | 0.00 | 0.00 | 45 | 877.2 |
| 20260501220013 | 21 | 142 | 14.5 | 25.7 | 0.00 | 0.00 | 0.00 | 44 | 877.3 |
| 20260501214512 | 21 | 161 | 11.3 | 25.7 | 0.00 | 0.00 | 0.00 | 40 | 877.4 |
| 20260501213012 | 21 | 98 | 14.5 | 22.5 | 0.00 | 0.00 | 0.00 | 42 | 877.7 |
| 20260501211511 | 21 | 86 | 12.9 | 22.5 | 0.00 | 0.00 | 0.00 | 45 | 877.7 |
| 20260501210027 | 21 | 86 | 12.9 | 25.7 | 0.00 | 0.00 | 0.00 | 46 | 877.7 |
| 20260501204510 | 21 | 163 | 12.9 | 27.4 | 0.00 | 0.00 | 0.00 | 45 | 877.7 |
| 20260501203009 | 21 | 157 | 12.9 | 24.1 | 0.00 | 0.00 | 0.00 | 46 | 877.7 |
| 20260501201510 | 21 | 138 | 12.9 | 20.9 | 0.00 | 0.00 | 0.00 | 44 | 877.7 |
| 20260501200009 | 21 | 136 | 12.9 | 20.9 | 0.00 | 0.00 | 0.00 | 46 | 877.7 |
| 20260501194510 | 21 | 153 | 12.9 | 25.7 | 0.00 | 0.00 | 0.00 | 48 | 877.8 |
| 20260501193008 | 21 | 114 | 14.5 | 24.1 | 0.00 | 0.00 | 0.00 | 43 | 877.8 |
| 20260501191510 | 21 | 115 | 12.9 | 22.5 | 0.00 | 0.00 | 0.00 | 43 | 877.9 |
| 20260501190006 | 21 | 134 | 12.9 | 20.9 | 0.00 | 0.00 | 0.00 | 38 | 878.1 |
| 20260501184509 | 21 | 147 | 9.7 | 20.9 | 0.00 | 0.00 | 0.00 | 40 | 878.1 |
| 20260501183005 | 21 | 121 | 14.5 | 20.9 | 0.00 | 0.00 | 0.00 | 34 | 878.0 |
| 20260501181510 | 21 | 126 | 12.9 | 22.5 | 0.00 | 0.00 | 0.00 | 36 | 878.2 |
| 20260501180004 | 21 | 136 | 11.3 | 20.9 | 0.00 | 0.00 | 0.00 | 35 | 878.2 |
| 20260501174504 | 21 | 94 | 6.4 | 16.1 | 0.00 | 0.00 | 0.00 | 35 | 878.2 |
| 20260501173107 | 21 | 134 | 8.0 | 17.7 | 0.00 | 0.00 | 0.00 | 33 | 878.2 |
| 20260501171559 | 21 | 104 | 9.7 | 20.9 | 0.00 | 0.00 | 0.00 | 33 | 878.2 |
| 20260501170059 | 20 | 100 | 12.9 | 22.5 | 0.00 | 0.00 | 0.00 | 35 | 878.3 |
| 20260501164604 | 20 | 90 | 9.7 | 17.7 | 0.00 | 0.00 | 0.00 | 40 | 878.2 |